RH
56 57 63 66 68 71 69 67 68 67 73 88 80 68 63 65 64 65 64 59 57 58 55 56 57 63 46 45 41 41 42 45 53 50 48 52 67 71 67 67 70 72 73
56 63 67 67 68 70 72 68 68 72 72 88 87 78 66 63 63 64 62 54 53 56 54 57 57 46 64 64 42 62 56 60 57 75 64 56 68 75 78 80 71 63 68
55 61 68 72 75 77 76 76 73 73 75 76 75 80 74 66 63 61 60 57 54 52 53 56 56 59 66 55 61 58 53 55 58 60 62 55 71 74 82 84 79 77 71
50 59 68 68 71 70 74 73 74 78 77 77 85 87 69 63 61 60 56 58 54 52 53 55 55 55 60 64 61 68 64 66 63 61 62 77 76 91 90 92 86 80 84
55 60 65 65 65 65 76 79 79 82 74 73 69 64 63 58 49 56 54 52 54 56 55 54 51 57 67 70 55 67 74 63 66 78 72 82 87 87 91 82 97 88 83
55 59 62 66 64 73 74 74 76 81 83 73 66 63 62 46 80 76 64 49 53 58 60 56 55 56 54 72 79 73 73 75 90 82 90 97 95 93 96 98 99 99 98
61 58 61 66 72 77 75 85 87 86 80 79 75 65 60 56 83 82 80 48 54 55 60 60 49 35 55 59 65 67 64 75 81 78 93 96 98 97 98 98 99 99 95
60 60 67 76 77 80 85 91 89 86 84 84 77 66 62 60 87 88 82 60 59 59 58 53 53 56 66 64 60 58 57 61 64 66 83 92 98 97 98 99 99 98 98
61 70 78 77 82 88 90 86 84 85 81 73 66 65 66 71 88 90 85 57 56 60 51 49 50 52 78 75 62 63 64 60 62 77 79 86 92 93 96 98 99 99 97
64 73 79 80 80 82 82 84 82 79 78 58 66 69 66 64 93 92 79 50 52 43 54 50 75 64 76 77 63 62 64 63 66 67 68 90 91 93 91 98 98 99 99
59 66 74 75 78 78 82 78 80 77 74 74 68 71 62 64 85 88 74 55 43 38 35 35 42 75 72 75 82 61 60 67 69 61 57 94 95 94 97 98 98 99 99
60 67 69 71 72 82 84 82 76 74 76 75 72 64 57 72 89 81 79 69 64 46 45 33 39 64 68 71 65 74 72 72 48 43 52 59 95 92 95 97 97 97 98
70 78 80 85 86 84 86 79 86 72 74 67 77 78 74 64 60 83 78 74 71 45 38 49 60 66 69 53 77 74 70 44 42 37 39 44 84 94 96 94 92 94 94
77 80 76 80 79 80 69 62 83 81 78 72 89 72 71 71 51 44 46 46 73 54 54 40 43 47 56 57 40 38 37 47 47 37 36 41 38 47 44 92 95 96 97
70 71 75 80 82 88 91 93 91 90 86 84 62 78 70 78 55 66 55 36 32 46 52 30 25 25 27 28 30 34 37 45 42 35 35 41 38 36 36 42 43 58 94
62 57 62 66 92 86 85 71 96 97 100 100 99 70 54 74 77 71 69 63 66 69 34 26 27 28 28 29 31 33 36 47 39 36 41 43 34 33 35 33 38 39 47
54 68 70 71 74 81 74 71 70 84 92 84 78 72 67 72 75 74 69 64 55 53 26 27 29 31 31 29 30 33 34 38 53 36 38 42 41 35 36 31 35 41 37
60 85 71 75 69 71 65 65 65 60 62 52 71 66 85 80 76 74 72 70 32 33 26 27 29 31 32 33 33 36 37 36 39 38 37 36 34 36 33 32 31 38 35
60 55 49 41 42 56 60 56 47 65 55 48 46 60 74 84 82 81 82 37 28 26 24 25 28 29 31 32 36 39 45 40 42 40 40 38 38 38 40 35 29 44 39
54 79 64 48 51 53 53 52 64 60 53 44 42 39 40 47 39 40 37 33 30 26 26 29 25 28 32 35 36 34 33 36 40 37 36 35 35 34 35 34 32 30 31
38 47 73 48 45 47 56 43 56 71 56 41 39 40 56 37 38 40 33 32 29 28 30 29 20 24 28 31 35 32 28 30 34 37 37 34 34 32 32 31 33 32 33
31 38 38 33 35 50 50 54 64 65 49 43 41 45 69 40 38 39 32 31 31 31 28 32 24 25 27 30 34 32 29 32 37 38 38 33 32 32 31 30 29 31 33
29 29 31 34 33 50 37 43 42 45 44 39 40 39 39 42 40 37 33 30 31 29 26 25 26 26 28 30 30 34 31 36 39 38 39 34 33 34 31 31 31 32 34
30 30 29 29 31 34 51 44 62 67 43 40 41 39 41 54 59 51 32 30 29 27 25 25 28 30 32 29 30 30 39 50 46 38 48 36 34 38 31 32 30 35 32
30 31 30 33 39 46 44 47 59 53 53 49 43 58 53 64 42 40 31 32 28 26 25 24 26 33 36 37 38 41 77 90 66 83 45 38 36 38 34 31 32 33 36
36 40 43 47 54 72 71 47 50 48 48 48 52 44 52 52 50 31 31 29 26 25 26 27 30 32 32 32 45 78 88 89 69 90 59 35 35 33 32 34 34 31 36
Wind_Speed
19 18 17 16 16 15 14 13 13 12 9 7 9 9 8 8 8 7 5 4 3 5 6 8 8 8 9 10 11 11 12 12 14 13 14 16 18 16 18 18 16 14 13
17 16 16 15 15 14 14 14 13 13 11 8 9 10 8 9 8 7 6 4 5 7 7 7 9 8 10 10 10 13 13 12 13 19 16 15 17 18 17 19 15 13 13
16 15 14 14 13 13 14 13 13 12 9 11 11 4 9 9 8 7 6 5 7 7 6 8 9 10 10 9 10 11 12 12 13 15 16 14 16 13 16 16 16 16 13
15 14 14 14 13 14 12 12 12 8 9 12 9 10 13 10 8 7 6 6 7 7 6 8 10 11 10 11 11 12 11 14 14 14 16 15 14 15 12 13 14 11 10
14 14 14 13 13 13 9 8 9 9 11 11 12 10 10 8 7 7 6 7 6 5 8 9 10 10 13 8 9 11 13 13 12 14 15 15 15 14 15 14 13 13 12
13 14 13 12 12 8 11 11 10 9 8 10 10 10 9 7 12 11 2 4 5 6 8 9 11 13 8 7 3 13 15 14 13 12 14 15 15 16 15 14 13 10 8
13 13 12 12 11 11 10 8 7 9 8 8 8 8 8 5 9 9 6 5 6 7 8 8 10 10 11 11 13 17 17 13 11 14 15 17 18 18 18 18 10 5 7
14 14 13 12 11 11 11 10 10 10 9 7 7 8 8 6 11 9 7 6 6 8 8 9 9 10 8 10 12 15 16 14 13 11 12 16 16 18 16 12 7 6 4
15 13 11 13 13 13 13 14 13 10 10 11 10 8 7 10 10 9 6 6 8 7 7 8 9 8 10 9 10 14 15 14 11 13 14 25 27 27 24 12 8 5 4
14 14 14 15 14 14 14 14 12 12 13 9 8 8 8 6 8 9 6 5 8 5 6 2 14 9 2 4 8 12 13 14 14 17 10 16 21 21 26 15 11 9 6
13 13 12 12 11 11 8 9 8 8 9 9 10 8 8 7 8 7 4 5 6 6 7 6 8 4 9 8 7 9 12 13 15 12 9 5 13 15 14 14 14 9 9
11 11 11 8 4 8 11 7 7 7 6 5 8 7 8 6 12 6 2 1 3 6 7 6 7 10 9 10 9 10 15 14 10 9 6 8 5 10 11 13 14 12 10
12 10 8 15 9 8 9 11 7 9 6 7 5 5 7 7 7 9 6 5 6 5 4 2 4 9 12 9 8 11 10 9 11 10 10 9 5 6 6 6 12 13 11
13 11 10 11 11 10 9 10 9 6 6 7 5 6 6 6 8 7 7 7 10 8 2 4 3 5 6 8 8 7 8 8 9 10 11 9 9 9 9 3 4 11 10
10 10 10 8 7 6 8 7 3 8 2 1 6 4 7 6 5 11 7 5 5 5 7 3 5 6 6 6 7 7 8 8 9 10 9 8 8 11 10 10 6 7 10
9 7 7 8 5 6 5 6 16 11 7 12 8 7 7 14 13 15 12 6 3 4 3 5 5 6 6 7 7 7 8 8 9 9 8 9 9 9 9 9 12 9 10
8 11 9 7 7 5 8 6 7 6 10 13 11 13 13 14 14 12 9 6 5 5 2 5 5 6 6 6 7 8 8 8 8 9 9 8 9 9 7 10 10 9 9
8 7 6 7 8 7 6 6 6 8 8 7 10 9 14 13 12 9 4 5 5 2 4 5 5 5 6 6 7 7 8 8 9 9 9 10 10 8 10 9 10 10 10
8 8 8 6 7 9 8 8 10 8 8 9 10 8 7 8 8 5 4 3 4 4 4 4 5 4 5 6 6 6 7 7 8 9 9 9 10 11 9 9 9 8 9
4 7 2 7 3 1 4 2 3 6 9 10 10 11 10 9 7 6 3 3 5 4 4 3 4 4 5 5 5 5 6 6 6 7 8 8 8 6 8 11 10 11 10
8 5 2 5 8 8 7 6 6 6 6 9 10 12 13 7 6 4 5 4 4 4 4 4 5 4 4 5 6 6 6 7 7 8 8 8 8 8 8 7 8 9 10
4 10 7 8 7 3 5 10 8 7 9 8 9 13 12 5 6 4 6 5 5 4 4 3 4 5 5 5 6 7 7 7 7 8 8 8 8 8 7 8 8 9 10
3 3 5 4 1 4 3 3 4 5 7 9 12 11 10 7 5 5 4 7 5 4 4 4 4 5 5 6 7 8 8 8 8 7 8 8 7 8 8 7 8 8 8
3 4 4 4 2 4 4 5 4 6 9 10 10 11 8 6 4 2 5 6 5 5 5 5 6 8 7 7 7 8 8 8 8 8 11 7 7 8 7 7 7 9 8
5 4 1 4 3 6 5 3 4 7 6 6 8 9 9 6 7 4 7 5 5 5 5 5 6 8 9 10 11 11 9 7 8 12 10 10 7 8 6 6 7 7 8
5 4 2 1 1 4 4 4 6 9 10 9 10 11 8 5 7 7 6 7 6 6 7 6 6 8 9 9 10 8 6 7 9 11 11 5 7 7 8 7 8 6 7
Wind_Direction
203 206 209 209 212 213 221 218 221 218 190 170 203 212 199 211 206 217 242 268 249 251 270 274 305 304 308 319 312 296 317 316 312 302 312 300 308 319 307 304 294 285 275
199 206 208 208 209 210 216 219 220 223 201 185 192 190 203 213 210 217 230 268 221 243 261 289 297 309 312 303 320 315 316 311 314 307 308 305 309 319 298 294 291 281 281
193 201 209 208 206 210 214 213 222 217 205 207 192 149 238 208 210 213 229 239 252 253 276 294 305 306 305 320 325 310 319 313 316 305 305 312 308 308 304 292 292 287 284
191 194 201 209 206 211 214 212 221 203 204 192 151 192 209 206 206 207 211 226 242 257 282 293 304 305 331 317 310 316 316 323 308 307 314 306 313 307 292 294 294 280 273
185 190 198 200 207 209 192 205 201 194 205 195 194 198 203 204 205 201 216 228 246 285 287 300 299 335 279 297 295 331 319 313 311 311 317 312 308 309 305 297 280 280 280
181 190 191 191 194 189 182 194 191 187 159 192 218 202 203 215 112 108 177 256 271 271 283 299 315 295 357 301 13 337 305 295 308 328 316 307 306 308 302 299 281 271 284
177 186 178 178 157 161 169 162 175 155 177 193 202 204 209 172 109 111 123 245 266 284 297 303 308 324 326 348 335 318 307 314 332 336 330 322 318 319 311 301 307 259 264
172 173 155 157 156 159 163 156 162 176 185 184 197 196 187 129 133 134 149 242 272 279 286 304 315 314 35 1 332 316 319 326 356 326 348 328 323 325 320 308 305 291 271
167 147 159 164 162 165 172 176 177 176 177 171 183 180 191 140 145 140 181 244 258 263 295 299 279 300 42 13 325 322 322 328 341 302 13 342 341 337 341 345 348 332 309
153 159 168 173 172 168 170 175 172 159 165 178 163 176 177 158 129 138 199 263 283 310 295 303 66 53 16 350 331 321 326 330 322 311 360 353 352 344 349 356 346 354 341
149 149 164 163 159 162 165 149 140 171 167 164 181 166 165 201 136 124 119 280 312 324 312 321 91 60 9 342 306 309 318 306 302 306 356 359 355 348 353 350 352 0 11
133 138 140 132 134 130 124 127 157 185 165 187 172 172 159 157 114 121 145 48 360 308 300 9 5 357 324 302 299 326 304 306 318 326 17 355 346 341 347 347 350 349 8
121 101 99 115 121 135 138 154 157 184 183 191 174 213 139 171 129 129 186 213 230 272 342 18 280 284 283 299 237 280 308 348 330 347 359 1 326 300 298 325 4 357 12
119 119 143 134 151 154 164 172 173 176 197 201 175 196 165 179 150 169 201 207 232 234 272 216 294 286 276 286 322 -0 6 346 338 357 356 358 352 340 356 345 13 15 15
110 115 128 130 149 102 56 18 354 67 17 344 194 143 182 186 83 90 49 48 4 45 312 292 8 2 0 4 353 3 15 348 353 354 6 352 7 358 2 352 358 64 44
116 130 134 136 118 116 130 111 51 45 51 64 329 98 67 103 110 91 84 73 338 335 269 19 17 7 6 4 354 8 8 358 0 357 357 351 358 21 354 20 359 23 35
134 135 149 155 171 161 182 156 127 69 60 49 91 109 109 121 111 112 136 196 230 268 4 35 21 13 5 6 1 3 11 359 357 5 1 2 351 358 33 15 23 6 27
127 128 144 176 162 177 167 176 159 163 153 119 72 106 111 120 121 132 149 283 209 114 53 27 26 17 9 12 10 9 358 7 2 10 10 3 2 8 359 31 32 20 20
153 188 196 185 151 164 171 193 194 159 139 131 128 112 102 107 129 169 213 285 41 52 38 59 30 25 22 17 15 8 3 8 8 6 11 13 9 355 6 7 23 57 21
110 31 19 102 114 167 99 242 206 161 151 145 158 149 151 165 164 153 150 81 79 48 40 43 59 20 40 18 8 3 4 21 7 6 7 11 4 34 22 1 21 14 15
143 148 343 269 179 169 173 178 155 172 184 160 165 154 163 180 137 154 123 108 88 81 65 8 30 42 38 36 16 355 14 20 14 7 1 6 5 9 14 21 17 37 7
262 153 181 244 127 133 226 162 167 173 175 174 134 132 147 161 139 167 124 121 106 77 80 68 43 45 45 31 20 358 13 16 12 5 358 357 18 355 12 19 16 28 35
200 220 159 212 84 94 179 134 181 159 158 154 132 151 168 153 198 112 125 108 112 106 89 59 56 58 42 43 35 28 11 9 351 2 349 356 14 351 9 18 26 22 33
168 214 203 167 54 110 72 155 148 171 157 158 156 160 144 120 139 191 143 113 115 113 111 90 66 51 44 44 39 43 30 10 327 2 335 353 6 355 12 14 26 23 33
157 212 256 20 75 130 173 188 156 143 126 126 121 111 148 169 190 178 113 132 134 112 93 96 98 93 69 56 49 38 22 341 340 334 339 343 17 349 22 29 3 41 25
69 54 47 352 228 86 123 203 129 129 134 141 150 155 149 168 215 144 145 147 147 123 114 99 91 80 84 71 53 29 356 349 343 333 321 326 19 33 348 31 20 30 43